{"data":{"norad_id":69155,"intl_designator":"2026-111H","name":"STARLINK-37329","alt_names":[],"object_type":"PAYLOAD","status":"ACTIVE","operator":null,"country":"US","launch_date":"2026-05-21","launch_site_code":"AFETR","launch_vehicle":null,"mission":null,"orbit_class":"UNKNOWN","rcs_meters":null,"size_class":null,"mass_kg":null,"dimensions":null,"purposes":["comms"],"wikipedia_slug":null,"has_3d_model":false,"image_url":null,"decayed_at":null,"tle_current":{"epoch":"2026-09-20T03:50:19.584960Z","epoch_age_seconds":52546,"freshness":"FRESH","line1":"1 69155U 26111H   26263.15994890  .00005550  00000+0  17518-3 0  9990","line2":"2 69155  53.1579  67.5153 0000239 132.8669 227.2353 15.34412021 18842","mean_motion":15.34412021,"eccentricity":2.39e-5,"inclination_deg":53.1579,"raan_deg":67.5153,"arg_perigee_deg":132.8669,"mean_anomaly_deg":227.2353,"bstar":0.00017518,"rev_number":1884,"period_min":93.847022852541,"perigee_km":462.50401626723,"apogee_km":462.83100672288,"semimajor_km":6840.8045114951,"source":"CELESTRAK","updated_at":"2026-09-20T09:00:44.090791Z"}}}